Mukilteo, WA

9:45 AM PST on December 09, 2016 (GMT -0800)
Snohomish County

Weather History for KPAE - December, 2012

Change the Weather History Date:

Tuesday, December 11, 2012

  Actual Average Record
Temperature  
Mean Temperature 44 °F -  
Max Temperature 45 °F 45 °F 59 °F (1950)
Min Temperature 42 °F 34 °F 10 °F (1972)
Degree Days  
Heating Degree Days 22    
Moisture  
Dew Point 40 °F    
Average Humidity 87    
Maximum Humidity 93    
Minimum Humidity 81    
Precipitation  
Precipitation 0.13 in - - ()
Sea Level Pressure  
Sea Level Pressure 29.73 in    
Wind  
Wind Speed 12 mph (South)    
Max Wind Speed 18 mph    
Max Gust Speed 26 mph    
Visibility 9 miles    
Events Rain    
Averages and records for this station are not official NWS values.
T = Trace of Precipitation, MM = Missing Value Source: NWS Daily Summary

Daily Weather History Graph

Daily Weather History Graph

Search for Another Location

Airport or City:

Trip Planner

Search our weather history database for the weather conditions in past years. The results will help you decide how hot, cold, wet, or windy it might be!

Date:

Astronomy

Dec. 11, 2012 Rise Set
Actual Time 7:49 AM PST 4:16 PM PST
Civil Twilight 7:12 AM PST 4:52 PM PST
Nautical Twilight 6:33 AM PST 5:31 PM PST
Astronomical Twilight 5:55 AM PST 6:09 PM PST
Moon 5:46 AM PST (12/11) 3:03 PM PST (12/11)
Length of Visible Light 9h 39m
Length of Day
8h 27m
Waning Crescent, 4% of the Moon is Illuminated
Dec 11
Waning Crescent
Dec 13
New
Dec 19
First Quarter
Dec 28
Full
Jan 4
Last Quarter

Hourly Weather History & Observations

Time (PST) Temp. Windchill Dew Point Humidity Pressure Visibility Wind Dir Wind Speed Gust Speed Precip Events Conditions
12:53 AM 43.0 °F 36.8 °F 39.9 °F 89% 30.03 in 10.0 mi SSE 11.5 mph - N/A   Overcast
1:18 AM 42.8 °F 35.4 °F 39.2 °F 87% 29.99 in 10.0 mi SSE 15.0 mph 19.6 mph N/A   Overcast
1:41 AM 42.8 °F 36.2 °F 39.2 °F 87% 29.98 in 10.0 mi South 12.7 mph 19.6 mph N/A   Overcast
1:48 AM 42.8 °F 35.8 °F 39.2 °F 87% 29.98 in 10.0 mi South 13.8 mph - N/A   Overcast
1:53 AM 43.0 °F 36.0 °F 39.0 °F 86% 29.99 in 10.0 mi South 13.8 mph - N/A   Overcast
2:26 AM 42.8 °F 36.6 °F 39.2 °F 87% 29.95 in 10.0 mi SSE 11.5 mph - N/A   Overcast
2:53 AM 43.0 °F 37.2 °F 39.0 °F 86% 29.96 in 10.0 mi South 10.4 mph 19.6 mph N/A   Overcast
3:21 AM 42.8 °F 35.8 °F 37.4 °F 81% 29.92 in 10.0 mi SSE 13.8 mph 20.7 mph N/A   Overcast
3:36 AM 42.8 °F 35.8 °F 37.4 °F 81% 29.91 in 10.0 mi SSE 13.8 mph - N/A   Mostly Cloudy
3:44 AM 42.8 °F 36.2 °F 39.2 °F 87% 29.91 in 10.0 mi SSE 12.7 mph - N/A   Scattered Clouds
3:53 AM 42.1 °F 34.9 °F 37.9 °F 85% 29.91 in 10.0 mi SSE 13.8 mph 20.7 mph N/A   Scattered Clouds
4:53 AM 42.1 °F 35.7 °F 39.0 °F 89% 29.87 in 10.0 mi SSE 11.5 mph - N/A   Mostly Cloudy
5:12 AM 42.8 °F 37.0 °F 39.2 °F 87% 29.85 in 10.0 mi SSE 10.4 mph - N/A   Overcast
5:53 AM 42.1 °F 35.2 °F 37.9 °F 85% 29.84 in 10.0 mi South 12.7 mph - N/A   Overcast
6:53 AM 44.1 °F 37.1 °F 39.0 °F 82% 29.80 in 10.0 mi South 15.0 mph - N/A   Overcast
7:53 AM 43.0 °F 36.0 °F 39.0 °F 86% 29.76 in 10.0 mi SSE 13.8 mph 23.0 mph N/A   Overcast
8:53 AM 43.0 °F 36.4 °F 39.0 °F 86% 29.75 in 10.0 mi SSE 12.7 mph - N/A   Overcast
9:53 AM 44.1 °F 37.7 °F 39.0 °F 82% 29.71 in 10.0 mi South 12.7 mph 21.9 mph 0.00 in Rain Light Rain
10:53 AM 44.1 °F 36.2 °F 39.0 °F 82% 29.68 in 10.0 mi South 18.4 mph 25.3 mph 0.00 in   Overcast
11:30 AM 44.6 °F 37.8 °F 39.2 °F 81% 29.64 in 10.0 mi South 15.0 mph 26.5 mph N/A   Overcast
11:53 AM 44.1 °F 36.8 °F 39.9 °F 85% 29.63 in 10.0 mi South 16.1 mph 24.2 mph 0.00 in Rain Light Rain
12:53 PM 45.0 °F 37.6 °F 39.9 °F 82% 29.60 in 10.0 mi South 17.3 mph 24.2 mph 0.00 in   Overcast
1:53 PM 45.0 °F 38.5 °F 39.9 °F 82% 29.59 in 10.0 mi South 13.8 mph - 0.00 in Rain Light Rain
1:56 PM 44.6 °F 37.4 °F 39.2 °F 81% 29.58 in 10.0 mi South 16.1 mph - 0.00 in Rain Light Rain
2:53 PM 45.0 °F 37.9 °F 39.9 °F 82% 29.55 in 10.0 mi South 16.1 mph 24.2 mph 0.00 in   Overcast
3:39 PM 44.6 °F 38.1 °F 39.2 °F 81% 29.55 in 10.0 mi South 13.8 mph 19.6 mph N/A   Overcast
3:53 PM 44.1 °F 38.1 °F 39.9 °F 85% 29.56 in 10.0 mi South 11.5 mph - N/A   Overcast
4:53 PM 43.0 °F 36.4 °F 39.0 °F 86% 29.56 in 5.0 mi SSE 12.7 mph - 0.01 in Rain Light Rain
5:33 PM 42.8 °F 37.0 °F 39.2 °F 87% 29.56 in 3.0 mi SSE 10.4 mph - 0.01 in Rain Light Rain
5:53 PM 42.1 °F 37.1 °F 39.9 °F 92% 29.56 in 3.0 mi SSE 8.1 mph - 0.02 in Rain Light Rain
6:53 PM 42.1 °F 37.1 °F 39.9 °F 92% 29.56 in 4.0 mi SSE 8.1 mph - 0.00 in   Overcast
7:53 PM 43.0 °F 37.2 °F 39.9 °F 89% 29.56 in 10.0 mi South 10.4 mph - N/A   Overcast
8:53 PM 43.0 °F 39.5 °F 41.0 °F 93% 29.57 in 6.0 mi SSW 5.8 mph - 0.01 in Rain Light Rain
9:53 PM 43.0 °F 38.8 °F 41.0 °F 93% 29.59 in 7.0 mi SSW 6.9 mph - 0.03 in Rain Light Rain
10:25 PM 42.8 °F 39.3 °F 41.0 °F 93% 29.58 in 5.0 mi West 5.8 mph - 0.02 in Rain Light Rain
10:53 PM 43.0 °F 39.5 °F 41.0 °F 93% 29.60 in 9.0 mi SW 5.8 mph - 0.02 in   Overcast
11:03 PM 42.8 °F 39.3 °F 41.0 °F 93% 29.59 in 8.0 mi WSW 5.8 mph - 0.00 in Rain Light Rain
11:16 PM 42.8 °F 39.3 °F 41.0 °F 93% 29.59 in 8.0 mi SW 5.8 mph - 0.01 in Rain Light Rain
11:29 PM 42.8 °F 39.3 °F 41.0 °F 93% 29.59 in 6.0 mi SW 5.8 mph - 0.02 in Rain Light Rain
11:53 PM 43.0 °F 41.3 °F 41.0 °F 93% 29.61 in 6.0 mi SW 3.5 mph - 0.04 in Rain Light Rain